Regional Weather Roundup
Issued by NWS Sterling, VA

Home | Current Version | Previous Version | Text Only | Print | Product List | Glossary Off
Versions: 1 2 3 4 5 6 7 8 9 10 11 12 13 14 15 16 17 18 19 20 21 22 23 24 25 26 27 28

000
ASUS41 KLWX 171411
RWRLWX

REGIONAL WEATHER ROUNDUP
NATIONAL WEATHER SERVICE BALTIMORE MD/WASHINGTON DC
900 AM EST SUN DEC 17 2017

Note: "FAIR" indicates few or no clouds below 12,000 feet
with no significant weather and/or obstructions to visibility.
 TC=TEMPERATURE CELSIUS

 * =Non NWS site. Station does not report precipitation (e.g. rain,
    snow, etc.), thunder, or fog.

DCZ001-MDZ009-015-VAZ040>042-051-053>054-171500-
WASHINGTON METRO

CITY           SKY/WX    TMP DP  RH WIND       PRES   REMARKS
WASHINGTON NAT PTSUNNY   36  31  82 S3        30.28S
DULLES         CLOUDY    32  27  81 CALM      30.27R
ANDREWS AFB    MOSUNNY   38  28  69 CALM      30.26R
FT BELVOIR     CLOUDY    32  26  77 CALM      30.27S
QUANTICO       CLOUDY    32  28  85 NW3       30.28S
COLLEGE PARK*  MOSUNNY   32  27  81 CALM      30.26S
LEESBURG*      CLOUDY    32  30  93 CALM      30.27R
MANASSAS*      PTSUNNY   35  27  72 CALM      30.27S
GAITHERSBURG*  MOSUNNY   34  31  88 CALM      30.26R

$$

MDZ006>007-011-014-171500-
BALTIMORE METRO

CITY           SKY/WX    TMP DP  RH WIND       PRES   REMARKS
BWI AIRPORT    CLOUDY    36  28  73 CALM      30.26R
MD SCIENCE CTR   N/A     39  28  64 MISG      30.29R
MARTIN STATE   PTSUNNY   32  32 100 CALM      30.28S
ANNAPOLIS      MOSUNNY   36  31  82 CALM      30.27R
FORT MEADE*    CLOUDY    30  28  93 CALM      30.29S

$$

MDZ012-015-019>023-171500-
MARYLAND EASTERN SHORE

CITY           SKY/WX    TMP DP  RH WIND       PRES   REMARKS
OCEAN CITY     SUNNY     39  32  76 N3        30.28R
SALISBURY      SUNNY     33  31  92 CALM      30.26S
BAY BRIDGE AP* MOSUNNY   36  30  80 CALM      30.27S
CAMBRIDGE*     SUNNY     30  28  93 CALM      30.27S
EASTON*        MOSUNNY   36  32  87 CALM      30.29S

$$

MDZ017>025-171500-
SOUTHERN MARYLAND

CITY           SKY/WX    TMP DP  RH WIND       PRES   REMARKS
PATUXENT RIVER CLOUDY    33  30  88 CALM      30.27R
ST INIGOES     CLOUDY    33  30  88 NE3       30.27R
LEONARDTOWN*   CLOUDY    32  30  93 CALM      30.28S

$$

MDZ003>005-171500-
NORTH CENTRAL MARYLAND

CITY           SKY/WX    TMP DP  RH WIND       PRES   REMARKS
FREDERICK*     SUNNY     30  28  93 CALM      30.28S
HAGERSTOWN APT CLOUDY    34  26  72 S6        30.24R
WESTMINSTER*   CLOUDY    36  28  75 CALM      30.23R

$$

MDZ501>502-171500-
WESTERN MARYLAND

CITY           SKY/WX    TMP DP  RH WIND       PRES   REMARKS
OAKLAND*       CLOUDY    32  27  80 SW3       30.12F
CUMBERLAND*    CLOUDY    28  28 100 CALM      30.27S

$$

VAZ025>031-171500-
SHENANDOAH VALLEY

CITY           SKY/WX    TMP DP  RH WIND       PRES   REMARKS
WINCHESTER*    MOSUNNY   34  25  69 SW5       30.25R
FRONT ROYAL*   FAIR      36  27  69 S5        30.24F
LURAY*         CLOUDY    32  30  93 CALM      30.24F
NEW MARKET*    CLOUDY    30  26  83 CALM      30.23F
STAUNTON*      PTSUNNY   32  27  81 CALM      30.25F
WAYNESBORO*    CLOUDY    35  26  69 CALM      30.22F

$$

WVZ021-048>050-054>055-171500-
EASTERN WEST VIRGINIA PANHANDLE

CITY           SKY/WX    TMP DP  RH WIND       PRES   REMARKS
MARTINSBURG    CLOUDY    33  25  72 S5        30.24R
PETERSBURG*    CLOUDY    29  25  88 CALM      30.21F

$$

VAZ036>039-050-171500-
CENTRAL FOOTHILLS

CITY           SKY/WX    TMP DP  RH WIND       PRES   REMARKS
CHARLOTTESVILL PTSUNNY   38  28  67 CALM      30.22F
CULPEPER*      FAIR      31  25  79 CALM      30.28R
ORANGE*        MOSUNNY   30  27  86 CALM      30.26R
GORDONSVILLE*  MOSUNNY   30  27  87 CALM      30.23F
WARRENTON*     MOSUNNY   32  24  72 CALM      30.26S

$$

VAZ055>057-171500-
NORTH AND CENTRAL PIEDMONT

CITY           SKY/WX    TMP DP  RH WIND       PRES   REMARKS
FREDERICKSBRG* MOSUNNY   29  27  93 CALM      30.27S
STAFFORD*      MOSUNNY   29  29 100 W3        30.31S

$$

NCZ024-NYZ072-PAZ021-071-VAZ022-071-171500-
OTHER REGIONAL OBSERVATIONS

CITY           SKY/WX    TMP DP  RH WIND       PRES   REMARKS
NEW YORK CITY  CLOUDY    33  21  61 VRB3      30.31R
PHILADELPHIA   PTSUNNY   35  26  69 E6        30.29R
PITTSBURGH     CLOUDY    34  28  79 CALM      30.18S
ROANOKE        PTSUNNY   39  27  62 CALM      30.26S
RICHMOND       PTSUNNY   38  29  70 CALM      30.25F
RALEIGH        PTSUNNY   34  29  82 CALM      30.28S

$$

ANZ530>537-171500-
MARINE OBSERVATIONS

STATION/POSITION TIME  TEMP    WIND        PRES
                       AIR SEA DIR/SP/G
                 (UTC) (F)     (DEG/KT/KT) (MB)
THOMAS PT LIGHT  1400   39 43   CALM  /  2   N/A
BALT KEY BRIDGE  1348   35      50/  2/  3 1025.0R
COVE POINT       1348   42      CALM  /  1 1025.5R
LEWISETTA        1348   35 38  230/  4/  5 1025.2R
SOLOMONS ISLAND  1348   36 45  300/  1/  3 1024.8R
PINEY POINT      1348          150/  3/  4   N/A

$$





USA.gov is the U.S. government's official web portal to all federal, state and local government web resources and services.